Date,Time,Wetness (Wet Dry or Ice),Wind Speed (m/s),Temperature (C),Humidity (%),Pressure (mb),Radiation (W/m^2)
2022-01-01,03:10:00,DRY,4.70,9.40,19.3,778.00,1.2
2022-01-01,03:15:00,DRY,3.90,9.55,21.5,778.00,1.1
2022-01-01,03:20:00,DRY,4.00,9.50,21.3,778.00,1.1
2022-01-01,03:25:00,DRY,4.35,9.40,21.0,778.00,1.1
2022-01-01,03:30:00,DRY,3.77,9.53,21.7,777.67,1.1
2022-01-01,03:35:00,DRY,3.45,9.55,21.5,777.00,0.9
2022-01-01,03:40:00,DRY,3.93,9.50,22.7,777.33,1.3
2022-01-01,03:45:00,DRY,3.80,9.60,23.0,777.00,1.1
2022-01-01,03:50:00,DRY,4.23,9.50,24.0,777.33,1.2
2022-01-01,03:55:00,DRY,3.90,9.50,23.5,777.50,1.2
2022-01-01,04:00:00,DRY,4.20,9.40,23.3,777.00,1.2
2022-01-01,04:05:00,DRY,4.15,9.35,24.5,777.00,1.2
2022-01-01,04:10:00,DRY,4.20,9.43,24.0,777.67,1.6
2022-01-01,04:15:00,DRY,3.55,9.40,23.0,777.00,1.5
2022-01-01,04:20:00,DRY,3.60,9.40,23.3,777.67,1.1
2022-01-01,04:25:00,DRY,4.00,9.30,23.5,777.00,1.1
2022-01-01,04:30:00,DRY,3.47,9.30,22.7,777.00,1.4
2022-01-01,04:35:00,DRY,2.85,9.15,22.5,777.50,1.5
2022-01-01,04:40:00,DRY,3.43,9.20,22.7,777.33,1.1
2022-01-01,04:45:00,DRY,3.65,9.20,23.0,777.50,1.5
2022-01-01,04:50:00,DRY,4.17,9.10,22.7,777.33,1.2
2022-01-01,04:55:00,DRY,3.15,9.15,22.0,777.00,1.1
2022-01-01,05:00:00,DRY,4.73,9.10,22.0,777.33,1.2
2022-01-01,05:05:00,DRY,3.80,9.30,23.0,777.50,1.1
2022-01-01,05:10:00,DRY,3.83,9.20,22.7,777.00,1.2
2022-01-01,05:15:00,DRY,3.45,9.20,21.0,777.50,2.8
2022-01-01,05:20:00,DRY,4.10,9.07,25.0,777.00,1.7
2022-01-01,05:25:00,DRY,3.90,9.15,25.5,777.00,1.0
2022-01-01,05:30:00,DRY,3.57,9.20,24.0,777.00,1.0
2022-01-01,05:35:00,DRY,3.95,9.10,22.5,777.00,1.1
2022-01-01,05:40:00,DRY,4.17,9.13,22.0,777.00,1.4
2022-01-01,05:45:00,DRY,4.00,9.15,23.0,777.00,1.4
2022-01-01,05:50:00,DRY,4.33,9.13,22.7,777.67,1.9
2022-01-01,05:55:00,DRY,3.70,9.10,21.5,777.50,1.6
2022-01-01,06:00:00,DRY,4.53,9.03,20.7,777.33,1.1
2022-01-01,06:05:00,DRY,3.75,9.10,21.0,777.00,1.2
2022-01-01,06:10:00,DRY,4.23,9.03,20.7,777.33,1.2
2022-01-01,06:15:00,DRY,3.70,9.00,20.5,777.00,1.4
2022-01-01,06:20:00,DRY,3.90,8.97,19.7,777.33,1.0
2022-01-01,06:25:00,DRY,2.90,8.90,21.0,778.00,2.1
2022-01-01,06:30:00,DRY,3.57,8.77,20.7,778.00,1.1
2022-01-01,06:35:00,DRY,3.60,8.85,20.0,778.00,1.5
2022-01-01,06:40:00,DRY,3.83,8.80,20.7,778.00,0.9
2022-01-01,06:45:00,DRY,3.80,8.80,20.5,778.00,0.8
2022-01-01,06:50:00,DRY,3.80,8.93,19.0,778.00,1.1
2022-01-01,06:55:00,DRY,3.70,9.05,18.5,778.00,1.5
2022-01-01,07:00:00,DRY,3.97,8.77,20.0,778.00,1.2
2022-01-01,07:05:00,DRY,3.55,8.60,20.0,778.00,0.8
2022-01-01,07:10:00,DRY,4.03,8.60,18.7,778.00,1.2
2022-01-01,07:15:00,DRY,4.00,8.45,20.0,778.00,1.5
2022-01-01,07:20:00,DRY,4.20,8.33,18.7,778.00,1.2
2022-01-01,07:25:00,DRY,3.80,8.30,19.5,778.00,1.2
2022-01-01,07:30:00,DRY,2.63,8.30,19.3,778.00,1.2
2022-01-01,07:35:00,DRY,4.05,8.20,19.5,778.00,1.1
2022-01-01,07:40:00,DRY,2.90,8.23,20.0,778.00,0.9
2022-01-01,07:45:00,DRY,2.95,8.20,19.5,778.00,1.1
2022-01-01,07:50:00,DRY,3.80,8.00,20.0,778.00,2.3
2022-01-01,07:55:00,DRY,4.05,8.15,19.0,778.00,3.8
2022-01-01,08:00:00,DRY,4.00,8.10,19.7,778.00,4.9
2022-01-01,08:05:00,DRY,4.10,8.15,19.5,778.00,6.7
2022-01-01,08:10:00,DRY,3.27,8.07,20.0,778.00,8.5
2022-01-01,08:15:00,DRY,3.95,8.00,19.0,778.00,11.8
2022-01-01,08:20:00,DRY,3.57,8.20,19.0,778.00,14.8
2022-01-01,08:25:00,DRY,3.20,8.25,19.0,778.00,17.2
2022-01-01,08:30:00,DRY,2.90,8.33,20.0,778.00,18.9
2022-01-01,08:35:00,DRY,2.65,8.35,19.5,778.00,20.8
2022-01-01,08:40:00,DRY,1.93,8.53,19.3,778.67,23.3
2022-01-01,08:45:00,DRY,1.50,8.90,19.5,779.00,49.0
2022-01-01,08:50:00,DRY,2.20,9.37,19.3,779.00,178.9
2022-01-01,08:55:00,DRY,2.55,9.25,20.5,779.00,198.6
2022-01-01,09:00:00,DRY,2.83,9.17,20.3,779.00,218.6
2022-01-01,09:05:00,DRY,2.70,9.35,21.0,779.00,239.8
2022-01-01,09:10:00,DRY,3.20,9.67,23.3,779.00,260.2
2022-01-01,09:15:00,DRY,2.10,10.00,22.5,779.00,280.3
2022-01-01,09:20:00,DRY,1.67,10.23,21.0,779.00,300.4
2022-01-01,09:25:00,DRY,2.10,10.25,19.0,779.00,320.4
2022-01-01,09:30:00,DRY,1.77,10.10,20.7,779.00,338.9
2022-01-01,09:35:00,DRY,2.15,10.00,21.0,779.00,358.9
2022-01-01,09:40:00,DRY,2.67,10.13,21.3,779.00,377.2
2022-01-01,09:45:00,DRY,2.35,10.25,21.5,779.00,396.9
2022-01-01,09:50:00,DRY,2.13,10.33,21.3,779.00,415.0
2022-01-01,09:55:00,DRY,1.90,10.30,22.0,779.00,433.2
2022-01-01,10:00:00,DRY,1.27,10.57,22.0,779.00,450.8
2022-01-01,10:05:00,DRY,1.55,10.45,21.5,779.00,469.8
2022-01-01,10:10:00,DRY,1.53,10.77,20.3,779.00,486.3
2022-01-01,10:15:00,DRY,0.90,11.25,20.5,779.00,504.3
2022-01-01,10:20:00,DRY,1.93,10.97,21.0,779.00,520.1
2022-01-01,10:25:00,DRY,1.60,10.85,21.5,779.00,536.8
2022-01-01,10:30:00,DRY,1.43,11.00,21.0,779.00,552.7
2022-01-01,10:35:00,DRY,0.85,11.15,21.0,779.00,569.0
2022-01-01,10:40:00,DRY,1.57,11.17,21.7,779.00,585.7
2022-01-01,10:45:00,DRY,2.00,11.15,22.5,779.00,601.2
2022-01-01,10:50:00,DRY,1.30,11.17,22.0,779.00,616.0
2022-01-01,10:55:00,DRY,1.25,11.00,22.0,779.50,633.0
2022-01-01,11:00:00,DRY,0.73,11.37,21.0,779.00,647.7
2022-01-01,11:05:00,DRY,1.10,11.65,20.5,779.00,663.3
2022-01-01,11:10:00,DRY,1.67,11.63,21.0,779.00,675.2
2022-01-01,11:15:00,DRY,0.85,11.15,22.5,779.00,686.1
2022-01-01,11:20:00,DRY,1.90,11.40,22.7,779.00,672.1
2022-01-01,11:25:00,DRY,1.75,11.55,21.5,779.00,666.6
2022-01-01,11:30:00,DRY,1.13,11.67,20.7,779.00,701.8
2022-01-01,11:35:00,DRY,1.15,11.85,21.5,779.00,736.3
2022-01-01,11:40:00,DRY,1.10,12.37,21.0,779.00,747.1
2022-01-01,11:45:00,DRY,1.10,12.20,24.0,779.00,741.8
2022-01-01,11:50:00,DRY,1.57,12.10,23.3,779.00,689.0
2022-01-01,11:55:00,DRY,1.55,11.55,24.0,779.00,708.9
2022-01-01,12:00:00,DRY,1.93,11.80,24.7,779.00,740.2
2022-01-01,12:05:00,DRY,1.60,12.00,25.0,779.00,747.5
2022-01-01,12:10:00,DRY,2.23,11.80,23.7,779.00,776.5
2022-01-01,12:15:00,DRY,2.60,11.85,24.5,779.00,784.7
2022-01-01,12:20:00,DRY,2.63,11.67,24.7,779.00,786.7
2022-01-01,12:25:00,DRY,1.45,11.90,25.5,779.00,789.8
2022-01-01,12:30:00,DRY,1.63,12.27,25.0,779.00,797.2
2022-01-01,12:35:00,DRY,1.65,12.10,26.0,779.00,800.4
2022-01-01,12:40:00,DRY,1.63,12.07,25.3,779.00,800.3
2022-01-01,12:45:00,DRY,2.00,12.00,25.5,779.00,806.6
2022-01-01,12:50:00,DRY,1.90,11.87,24.7,779.00,805.5
2022-01-01,12:55:00,DRY,3.00,11.55,26.0,779.00,802.4
2022-01-01,13:00:00,DRY,1.50,12.00,26.0,779.00,799.2
2022-01-01,13:05:00,DRY,1.00,12.05,26.5,779.00,806.9
2022-01-01,13:10:00,DRY,2.23,12.20,26.0,779.00,808.1
2022-01-01,13:15:00,DRY,2.25,11.70,27.5,779.00,808.2
2022-01-01,13:20:00,DRY,2.13,12.00,27.3,779.00,805.5
2022-01-01,13:25:00,DRY,2.40,12.00,28.0,779.00,806.0
2022-01-01,13:30:00,DRY,1.65,11.70,29.0,779.00,807.3
2022-01-01,13:35:00,DRY,1.80,12.20,28.0,779.00,809.8
2022-01-01,13:40:00,DRY,1.77,11.60,29.3,779.00,804.9
2022-01-01,13:45:00,DRY,2.70,11.55,30.5,779.00,795.7
2022-01-01,13:50:00,DRY,1.10,12.00,29.3,778.67,793.9
2022-01-01,13:55:00,DRY,2.40,11.55,30.0,778.50,793.5
2022-01-01,14:00:00,DRY,2.73,11.93,30.3,778.67,789.6
2022-01-01,14:05:00,DRY,1.85,11.95,30.5,778.50,782.0
2022-01-01,14:10:00,DRY,2.13,11.90,31.0,779.00,777.7
2022-01-01,14:15:00,DRY,1.85,11.55,32.0,778.00,770.3
2022-01-01,14:20:00,DRY,2.80,11.47,32.0,778.00,767.2
2022-01-01,14:25:00,DRY,1.95,11.45,31.5,778.00,756.7
2022-01-01,14:30:00,DRY,2.07,11.73,31.7,778.00,750.3
2022-01-01,14:35:00,DRY,1.80,11.70,32.5,778.00,742.1
2022-01-01,14:40:00,DRY,2.03,11.63,32.7,778.00,733.2
2022-01-01,14:45:00,DRY,1.70,11.45,33.5,778.00,723.6
2022-01-01,14:50:00,DRY,2.13,11.77,32.3,778.00,715.2
2022-01-01,14:55:00,DRY,2.10,11.65,33.0,778.00,703.0
2022-01-01,15:00:00,DRY,2.73,11.20,35.7,778.00,691.0
2022-01-01,15:05:00,DRY,2.75,11.15,34.0,778.00,680.0
2022-01-01,15:10:00,DRY,2.20,11.63,34.0,778.00,668.2
2022-01-01,15:15:00,DRY,1.50,11.60,34.5,778.00,658.2
2022-01-01,15:20:00,DRY,2.10,11.40,34.0,778.00,643.7
2022-01-01,15:25:00,DRY,0.95,11.50,33.5,778.00,633.2
2022-01-01,15:30:00,DRY,2.50,11.57,33.0,778.00,619.3
2022-01-01,15:35:00,DRY,0.40,12.05,33.5,778.00,606.2
2022-01-01,15:40:00,DRY,1.17,11.83,32.3,778.00,589.0
2022-01-01,15:45:00,DRY,1.45,10.90,32.5,778.00,575.3
2022-01-01,15:50:00,DRY,1.17,10.93,34.7,778.00,559.2
2022-01-01,15:55:00,DRY,0.70,11.05,35.0,778.00,544.8
2022-01-01,16:00:00,DRY,1.10,10.73,38.0,778.00,528.4
2022-01-01,16:05:00,DRY,0.65,10.70,36.5,778.00,513.5
2022-01-01,16:10:00,DRY,1.03,10.50,39.0,778.33,496.0
2022-01-01,16:15:00,DRY,1.20,10.50,37.0,778.00,478.4
2022-01-01,16:20:00,DRY,0.80,10.57,39.3,778.00,461.9
2022-01-01,16:25:00,DRY,0.85,10.65,39.0,778.50,444.9
2022-01-01,16:30:00,DRY,0.70,10.90,38.3,779.00,426.9
2022-01-01,16:35:00,DRY,0.80,10.65,36.5,779.00,410.0
2022-01-01,16:40:00,DRY,0.77,10.40,35.3,779.00,390.4
2022-01-01,16:45:00,DRY,0.80,10.40,36.0,779.00,371.9
2022-01-01,16:50:00,DRY,0.73,10.40,35.3,779.00,352.6
2022-01-01,16:55:00,DRY,0.65,10.35,35.5,779.00,332.9
2022-01-01,17:00:00,DRY,0.60,10.47,35.3,779.00,314.4
2022-01-01,17:05:00,DRY,1.30,10.45,35.5,779.00,294.4
2022-01-01,17:10:00,DRY,1.07,10.30,36.3,779.00,275.1
2022-01-01,17:15:00,DRY,0.95,10.20,36.5,779.00,255.3
2022-01-01,17:20:00,DRY,1.33,10.17,37.0,779.00,236.1
2022-01-01,17:25:00,DRY,1.35,10.00,37.0,779.00,216.9
2022-01-01,17:30:00,DRY,1.37,9.93,38.0,779.00,197.6
2022-01-01,17:35:00,DRY,1.45,9.95,39.0,779.00,178.8
2022-01-01,17:40:00,DRY,1.03,9.77,38.3,779.00,158.4
2022-01-01,17:45:00,DRY,1.35,9.75,39.5,779.00,134.4
2022-01-01,17:50:00,DRY,1.67,9.67,36.7,779.00,106.3
2022-01-01,17:55:00,DRY,1.65,9.65,32.5,779.00,84.0
2022-01-01,18:00:00,DRY,2.07,9.70,29.7,779.00,62.4
2022-01-01,18:05:00,DRY,1.85,9.70,27.0,779.00,44.2
2022-01-01,18:10:00,DRY,1.97,9.57,27.7,779.00,31.5
2022-01-01,18:15:00,DRY,1.50,9.50,27.5,779.00,18.9
2022-01-01,18:20:00,DRY,1.43,9.43,27.3,779.00,15.6
2022-01-01,18:25:00,DRY,1.55,9.30,28.5,779.00,11.7
2022-01-01,18:30:00,DRY,1.67,9.13,28.3,779.00,6.9
2022-01-01,18:35:00,DRY,1.80,9.10,29.5,779.00,4.2
2022-01-01,18:40:00,DRY,2.03,9.17,27.7,779.00,2.5
2022-01-01,18:45:00,DRY,1.80,9.20,28.0,779.00,2.2
2022-01-01,18:50:00,DRY,2.57,8.97,28.0,779.00,1.9
2022-01-01,18:55:00,DRY,2.60,9.05,27.5,779.00,2.2
2022-01-01,19:00:00,DRY,2.67,8.97,28.0,779.00,1.9
2022-01-01,19:05:00,DRY,2.30,9.10,27.5,779.00,1.7
2022-01-01,19:10:00,DRY,2.03,9.07,28.7,779.00,0.6
2022-01-01,19:15:00,DRY,2.05,9.15,28.0,779.00,1.4
2022-01-01,19:20:00,DRY,2.00,9.17,28.7,779.00,1.2
2022-01-01,19:25:00,DRY,2.35,9.15,29.0,779.00,0.8
2022-01-01,19:30:00,DRY,2.27,9.20,27.3,779.00,0.5
2022-01-01,19:35:00,DRY,2.45,9.20,26.5,779.00,0.7
2022-01-01,19:40:00,DRY,2.40,9.17,25.7,779.00,1.7
2022-01-01,19:45:00,DRY,2.90,8.95,26.0,779.00,0.9
2022-01-01,19:50:00,DRY,2.60,8.80,27.0,779.33,1.0
2022-01-01,19:55:00,DRY,2.80,8.65,28.5,779.50,1.1
2022-01-01,20:00:00,DRY,2.77,8.67,27.0,779.33,1.2
2022-01-01,20:05:00,DRY,2.75,8.65,27.5,780.00,1.2
2022-01-01,20:10:00,DRY,2.63,8.67,27.3,780.00,1.4
2022-01-01,20:15:00,DRY,2.70,8.65,27.0,780.00,2.1
2022-01-01,20:20:00,DRY,2.70,8.67,28.0,780.00,1.5
2022-01-01,20:25:00,DRY,2.95,8.70,28.0,780.00,1.4
2022-01-01,20:30:00,DRY,3.10,8.77,28.3,780.00,1.3
2022-01-01,20:35:00,DRY,3.10,8.70,29.0,780.00,1.5
2022-01-01,20:40:00,DRY,3.23,8.60,29.3,780.00,1.2
2022-01-01,20:45:00,DRY,2.75,8.75,28.0,780.00,1.0
2022-01-01,20:50:00,DRY,3.27,8.60,29.7,780.00,1.1
2022-01-01,20:55:00,DRY,2.85,8.50,29.5,780.00,1.1
2022-01-01,21:00:00,DRY,2.70,8.43,29.7,780.00,0.9
2022-01-01,21:05:00,DRY,3.20,8.45,29.5,780.00,0.9
2022-01-01,21:10:00,DRY,3.90,8.67,29.3,780.00,1.3
2022-01-01,21:15:00,DRY,3.40,8.45,30.5,780.00,1.1
2022-01-01,21:20:00,DRY,3.57,8.43,30.0,780.00,1.2
2022-01-01,21:25:00,DRY,4.10,8.55,30.5,780.00,1.1
2022-01-01,21:30:00,DRY,3.73,8.37,30.0,780.00,0.4
2022-01-01,21:35:00,DRY,3.70,8.30,30.0,780.00,1.0
2022-01-01,21:40:00,DRY,3.60,8.30,29.7,780.00,0.8
2022-01-01,21:45:00,DRY,3.25,8.10,30.5,780.00,1.5
2022-01-01,21:50:00,DRY,3.97,8.33,28.0,780.00,1.1
2022-01-01,21:55:00,DRY,3.65,8.55,27.5,780.00,0.9
2022-01-01,22:00:00,DRY,3.93,8.30,27.0,780.00,1.2
2022-01-01,22:05:00,DRY,3.85,8.35,27.5,780.00,0.8
2022-01-01,22:10:00,DRY,3.27,8.23,27.7,780.00,1.0
2022-01-01,22:15:00,DRY,4.00,8.35,27.0,780.00,1.1
2022-01-01,22:20:00,DRY,4.57,8.33,27.0,780.00,1.0
2022-01-01,22:25:00,DRY,4.05,8.35,28.5,780.00,0.8
2022-01-01,22:30:00,DRY,5.00,8.33,29.0,780.00,1.2
2022-01-01,22:35:00,DRY,4.05,8.40,29.5,780.00,1.4
2022-01-01,22:40:00,DRY,5.23,8.27,28.7,780.00,1.2
2022-01-01,22:45:00,DRY,5.55,8.35,29.0,780.00,1.2
2022-01-01,22:50:00,DRY,3.97,8.33,29.3,780.00,1.1
2022-01-01,22:55:00,DRY,4.25,8.40,30.0,780.00,0.8
2022-01-01,23:00:00,DRY,4.60,8.30,29.7,780.00,1.2
2022-01-01,23:05:00,DRY,3.80,8.35,29.0,780.00,1.0
2022-01-01,23:10:00,DRY,4.63,8.20,29.3,780.00,1.1
2022-01-01,23:15:00,DRY,4.90,8.25,29.5,780.00,0.8
2022-01-01,23:20:00,DRY,4.27,8.23,29.7,780.00,1.1
2022-01-01,23:25:00,DRY,3.75,8.15,29.5,780.00,1.6
2022-01-01,23:30:00,DRY,5.17,8.13,29.7,780.00,1.2
2022-01-01,23:35:00,DRY,3.65,8.25,30.0,780.00,1.1
2022-01-01,23:40:00,DRY,4.33,8.20,30.3,780.00,0.9
2022-01-01,23:45:00,DRY,4.70,8.25,30.5,780.00,0.9
2022-01-01,23:50:00,DRY,3.43,8.23,29.7,780.00,1.1
2022-01-01,23:55:00,DRY,3.40,8.40,29.5,780.00,1.0
2022-01-02,00:00:00,DRY,2.97,8.23,30.0,780.00,0.9
2022-01-02,00:05:00,DRY,3.15,8.15,28.5,780.00,0.6
2022-01-02,00:10:00,DRY,2.83,8.20,28.7,780.00,1.1
2022-01-02,00:15:00,DRY,3.00,8.15,28.0,780.00,1.8
2022-01-02,00:20:00,DRY,2.97,8.03,29.3,780.00,1.7
2022-01-02,00:25:00,DRY,3.25,8.05,29.0,780.00,1.1
2022-01-02,00:30:00,DRY,3.30,8.07,28.3,780.00,1.3
2022-01-02,00:35:00,DRY,3.75,8.05,29.0,780.00,1.1
2022-01-02,00:40:00,DRY,3.90,8.07,29.0,780.00,1.1
2022-01-02,00:45:00,DRY,1.95,7.85,29.5,780.00,1.3
2022-01-02,00:50:00,DRY,3.60,7.97,26.0,780.00,1.3
2022-01-02,00:55:00,DRY,2.55,7.85,25.0,780.00,1.3
2022-01-02,01:00:00,DRY,3.63,7.93,22.7,780.00,1.4
2022-01-02,01:05:00,DRY,2.35,8.00,22.0,780.00,1.0
2022-01-02,01:10:00,DRY,4.00,8.00,22.7,780.00,0.6
2022-01-02,01:15:00,DRY,3.25,7.95,23.0,780.00,1.8
2022-01-02,01:20:00,DRY,4.63,8.07,21.7,780.00,0.8
2022-01-02,01:25:00,DRY,2.80,7.95,20.5,780.00,1.8
2022-01-02,01:30:00,DRY,2.80,7.93,22.3,780.00,1.1
2022-01-02,01:35:00,DRY,3.05,7.95,23.0,780.00,1.7
2022-01-02,01:40:00,DRY,3.50,7.90,22.7,780.00,1.3
2022-01-02,01:45:00,DRY,4.25,7.95,22.0,780.00,1.4
2022-01-02,01:50:00,DRY,4.20,7.90,24.0,779.67,1.3
2022-01-02,01:55:00,DRY,4.90,7.85,25.0,780.00,1.0
2022-01-02,02:00:00,DRY,5.27,8.03,24.3,780.00,1.0
2022-01-02,02:05:00,DRY,5.60,8.05,23.5,779.50,0.8
2022-01-02,02:10:00,DRY,4.17,8.20,21.7,779.67,0.7
2022-01-02,02:15:00,DRY,3.95,8.20,21.5,779.50,1.1
2022-01-02,02:20:00,DRY,4.73,8.30,22.0,779.00,1.3
2022-01-02,02:25:00,DRY,4.15,8.20,21.5,779.50,1.1
2022-01-02,02:30:00,DRY,3.87,8.13,21.3,779.33,1.0
2022-01-02,02:35:00,DRY,2.55,8.30,20.5,779.00,1.9
2022-01-02,02:40:00,DRY,3.87,8.47,18.7,779.67,0.9
2022-01-02,02:45:00,DRY,3.55,8.60,17.5,779.50,1.1
2022-01-02,02:50:00,DRY,3.83,8.73,17.3,779.33,1.0
2022-01-02,02:55:00,DRY,3.80,9.00,16.0,779.00,1.4
2022-01-02,03:00:00,DRY,4.10,9.17,14.3,779.33,1.3
2022-01-02,03:05:00,DRY,3.35,9.50,13.5,779.50,1.6
2022-01-02,03:10:00,DRY,3.80,9.33,14.3,779.33,1.8
2022-01-02,03:15:00,DRY,4.60,9.10,15.5,779.50,0.9
2022-01-02,03:20:00,DRY,3.60,9.23,15.3,779.67,1.2
2022-01-02,03:25:00,DRY,3.75,9.15,16.5,780.00,1.2
2022-01-02,03:30:00,DRY,3.53,9.13,15.0,780.00,1.5
2022-01-02,03:35:00,DRY,2.00,9.60,13.0,780.00,1.9
2022-01-02,03:40:00,DRY,2.90,9.63,13.3,780.00,1.2
2022-01-02,03:45:00,DRY,3.25,9.60,13.5,780.00,1.1
2022-01-02,03:50:00,DRY,3.93,9.47,14.3,780.00,1.0
2022-01-02,03:55:00,DRY,4.60,9.30,15.0,779.50,1.8
2022-01-02,04:00:00,DRY,4.17,9.63,13.7,779.67,1.5
2022-01-02,04:05:00,DRY,4.45,9.65,13.0,779.00,1.1
2022-01-02,04:10:00,DRY,4.07,9.87,12.7,779.33,0.8
2022-01-02,04:15:00,DRY,5.30,10.00,12.5,779.00,1.1
2022-01-02,04:20:00,DRY,4.80,9.93,13.0,779.00,1.3
2022-01-02,04:25:00,DRY,3.60,9.75,13.5,779.00,1.1
2022-01-02,04:30:00,DRY,3.83,9.53,13.3,779.00,1.2
2022-01-02,04:35:00,DRY,4.30,9.40,14.5,779.00,1.1
2022-01-02,04:40:00,DRY,3.87,9.10,15.3,779.00,0.8
2022-01-02,04:45:00,DRY,3.60,9.20,15.0,779.00,1.3
2022-01-02,04:50:00,DRY,3.13,9.20,15.0,779.00,1.0
2022-01-02,04:55:00,DRY,3.15,9.15,14.5,779.00,0.4
2022-01-02,05:00:00,DRY,4.10,9.17,15.0,779.00,1.0
2022-01-02,05:05:00,DRY,5.00,9.20,14.0,779.00,1.0
2022-01-02,05:10:00,DRY,3.40,9.07,14.3,779.00,1.0
2022-01-02,05:15:00,DRY,3.10,8.95,15.0,779.00,1.7
2022-01-02,05:20:00,DRY,4.07,8.90,14.7,779.00,1.2
2022-01-02,05:25:00,DRY,4.80,8.80,15.0,779.00,1.2
2022-01-02,05:30:00,DRY,4.20,9.07,14.0,779.00,1.1
2022-01-02,05:35:00,DRY,3.40,9.25,13.5,779.00,1.4
2022-01-02,05:40:00,DRY,4.40,9.23,13.0,779.00,1.0
2022-01-02,05:45:00,DRY,4.50,9.45,12.5,779.00,0.8
2022-01-02,05:50:00,DRY,4.60,9.27,13.0,779.00,0.9
2022-01-02,05:55:00,DRY,3.90,9.35,12.5,779.00,1.6
2022-01-02,06:00:00,DRY,3.50,9.20,13.3,779.00,2.1
2022-01-02,06:05:00,DRY,2.95,9.10,14.0,779.00,1.4
2022-01-02,06:10:00,DRY,3.57,9.07,14.0,779.00,1.0
2022-01-02,06:15:00,DRY,3.90,9.10,14.5,779.00,1.3
2022-01-02,06:20:00,DRY,5.37,9.20,13.7,779.00,1.2
2022-01-02,06:25:00,DRY,3.35,9.30,13.0,779.00,0.2
2022-01-02,06:30:00,DRY,2.97,9.23,13.7,779.00,0.9
2022-01-02,06:35:00,DRY,4.00,9.05,14.5,779.00,1.0
2022-01-02,06:40:00,DRY,4.60,9.10,14.3,779.00,1.0
2022-01-02,06:45:00,DRY,3.35,9.20,13.5,779.00,1.5
2022-01-02,06:50:00,DRY,2.73,9.30,13.0,779.00,1.6
2022-01-02,06:55:00,DRY,2.45,9.35,12.5,779.00,1.5
2022-01-02,07:00:00,DRY,2.57,9.30,12.7,779.00,0.9
2022-01-02,07:05:00,DRY,1.80,9.30,12.5,779.50,1.1
2022-01-02,07:10:00,DRY,2.67,9.57,12.3,779.33,1.4
2022-01-02,07:15:00,DRY,4.00,9.20,14.0,779.50,1.1
2022-01-02,07:20:00,DRY,4.03,9.10,14.0,779.33,1.3
2022-01-02,07:25:00,DRY,3.75,9.40,13.0,780.00,1.0
2022-01-02,07:30:00,DRY,4.80,9.20,13.7,780.00,1.1
2022-01-02,07:35:00,DRY,4.75,8.95,14.5,780.00,1.2
2022-01-02,07:40:00,DRY,5.07,8.97,14.0,780.00,1.6
2022-01-02,07:45:00,DRY,4.25,8.95,14.5,780.00,2.3
2022-01-02,07:50:00,DRY,3.87,8.87,14.7,780.00,2.0
2022-01-02,07:55:00,DRY,3.45,9.00,14.5,780.00,3.9
2022-01-02,08:00:00,DRY,3.37,9.07,14.0,780.00,5.2
2022-01-02,08:05:00,DRY,4.10,8.90,15.5,780.00,7.6
2022-01-02,08:10:00,DRY,3.53,8.83,15.3,780.00,10.0
2022-01-02,08:15:00,DRY,3.70,8.80,15.5,780.00,12.4
2022-01-02,08:20:00,DRY,2.03,8.77,15.3,780.00,14.6
2022-01-02,08:25:00,DRY,2.45,8.90,15.5,780.00,17.6
2022-01-02,08:30:00,DRY,2.93,8.93,15.7,780.00,18.6
2022-01-02,08:35:00,DRY,2.95,8.90,15.5,780.00,19.9
2022-01-02,08:40:00,DRY,2.43,9.00,15.3,780.00,23.2
2022-01-02,08:45:00,DRY,2.30,9.30,15.5,780.00,45.6
2022-01-02,08:50:00,DRY,2.23,9.27,16.0,780.00,181.7
2022-01-02,08:55:00,DRY,2.15,9.50,15.0,780.00,200.8
2022-01-02,09:00:00,DRY,2.30,9.60,15.7,780.00,221.8
2022-01-02,09:05:00,DRY,1.80,9.55,15.5,780.00,241.2
2022-01-02,09:10:00,DRY,2.10,9.90,15.0,780.00,262.0
2022-01-02,09:15:00,DRY,2.40,10.25,14.0,780.00,281.5
2022-01-02,09:20:00,DRY,1.97,10.50,14.7,780.00,301.7
2022-01-02,09:25:00,DRY,2.00,10.65,14.5,780.00,321.9
2022-01-02,09:30:00,DRY,1.80,10.63,15.3,780.00,341.6
2022-01-02,09:35:00,DRY,1.60,10.55,15.0,780.00,360.8
2022-01-02,09:40:00,DRY,2.23,10.70,14.7,780.00,380.5
2022-01-02,09:45:00,DRY,2.65,10.70,15.0,780.00,399.8
2022-01-02,09:50:00,DRY,1.53,10.90,14.7,780.00,419.2
2022-01-02,09:55:00,DRY,1.85,10.90,15.0,780.00,436.4
2022-01-02,10:00:00,DRY,1.30,11.17,14.7,780.33,454.9
2022-01-02,10:05:00,DRY,1.70,11.05,14.5,780.50,473.0
2022-01-02,10:10:00,DRY,2.27,10.93,15.0,780.33,489.8
2022-01-02,10:15:00,DRY,2.10,11.15,15.5,780.50,507.3
2022-01-02,10:20:00,DRY,2.27,10.87,16.0,780.33,523.7
2022-01-02,10:25:00,DRY,1.20,11.10,16.0,780.50,540.2
2022-01-02,10:30:00,DRY,1.77,11.33,16.0,780.67,555.0
2022-01-02,10:35:00,DRY,1.70,11.50,17.0,781.00,571.7
2022-01-02,10:40:00,DRY,1.27,11.50,15.7,781.00,587.6
2022-01-02,10:45:00,DRY,1.80,11.45,17.0,781.00,601.5
2022-01-02,10:50:00,DRY,1.73,11.33,17.0,781.00,615.7
2022-01-02,10:55:00,DRY,1.30,11.55,17.0,781.00,629.5
2022-01-02,11:00:00,DRY,1.23,11.33,17.0,780.33,642.9
2022-01-02,11:05:00,DRY,2.75,11.40,16.5,780.00,655.7
2022-01-02,11:10:00,DRY,0.90,11.13,18.3,781.00,667.7
2022-01-02,11:15:00,DRY,1.50,11.10,18.5,780.00,679.2
2022-01-02,11:20:00,DRY,0.93,10.97,18.3,780.67,691.8
2022-01-02,11:25:00,DRY,2.35,11.25,18.5,780.50,701.9
2022-01-02,11:30:00,DRY,1.63,11.17,18.0,780.00,712.9
2022-01-02,11:35:00,DRY,1.00,11.20,18.0,780.50,723.3
2022-01-02,11:40:00,DRY,2.13,10.83,19.3,780.00,733.5
2022-01-02,11:45:00,DRY,0.65,11.25,17.0,780.50,742.0
2022-01-02,11:50:00,DRY,1.43,11.23,18.7,780.00,751.0
2022-01-02,11:55:00,DRY,1.70,10.80,18.5,780.00,759.8
2022-01-02,12:00:00,DRY,2.33,10.80,20.0,780.00,766.9
2022-01-02,12:05:00,DRY,1.25,10.85,21.5,780.00,774.8
2022-01-02,12:10:00,DRY,1.13,10.73,22.0,780.00,781.4
2022-01-02,12:15:00,DRY,1.20,10.80,20.5,780.00,787.0
2022-01-02,12:20:00,DRY,2.10,11.10,21.3,780.00,793.8
2022-01-02,12:25:00,DRY,1.20,11.25,21.0,780.00,798.8
2022-01-02,12:30:00,DRY,2.13,11.13,21.7,780.00,802.6
2022-01-02,12:35:00,DRY,2.35,11.00,17.5,780.00,807.5
2022-01-02,12:40:00,DRY,2.70,10.97,19.7,780.00,809.7
2022-01-02,12:45:00,DRY,3.20,10.95,18.0,780.00,812.5
2022-01-02,12:50:00,DRY,2.53,10.90,18.7,780.00,817.1
2022-01-02,12:55:00,DRY,3.30,11.15,18.0,780.00,818.2
2022-01-02,13:00:00,DRY,2.73,11.20,19.0,780.00,819.6
2022-01-02,13:05:00,DRY,2.80,10.85,19.0,780.00,821.2
2022-01-02,13:10:00,DRY,4.27,11.13,21.0,780.00,820.2
2022-01-02,13:15:00,DRY,2.20,11.05,22.5,780.00,822.0
2022-01-02,13:20:00,DRY,2.47,10.80,22.0,780.00,820.4
2022-01-02,13:25:00,DRY,3.10,10.90,18.0,780.00,819.5
2022-01-02,13:30:00,DRY,3.05,11.00,18.0,780.00,818.0
2022-01-02,13:35:00,DRY,3.60,10.90,22.0,779.00,815.6
2022-01-02,13:40:00,DRY,2.33,10.63,19.7,780.00,814.1
2022-01-02,13:45:00,DRY,1.90,10.80,17.5,780.00,810.5
2022-01-02,13:50:00,DRY,2.63,11.10,20.3,780.00,807.2
2022-01-02,13:55:00,DRY,3.85,10.65,20.5,779.00,802.4
2022-01-02,14:00:00,DRY,3.40,10.77,20.3,779.67,798.1
2022-01-02,14:05:00,DRY,3.70,10.95,18.5,779.00,793.6
2022-01-02,14:10:00,DRY,2.93,11.17,20.3,779.33,787.7
2022-01-02,14:15:00,DRY,4.75,10.95,19.5,779.50,781.5
2022-01-02,14:20:00,DRY,3.33,10.67,19.7,779.00,774.2
2022-01-02,14:25:00,DRY,2.25,10.80,20.0,779.00,767.0
2022-01-02,14:30:00,DRY,2.77,10.93,20.0,779.00,758.8
2022-01-02,14:35:00,DRY,2.05,10.70,22.0,779.00,751.7
2022-01-02,14:40:00,DRY,2.20,10.50,22.3,779.00,741.6
2022-01-02,14:45:00,DRY,3.30,10.35,22.5,779.00,733.3
2022-01-02,14:50:00,DRY,3.43,10.30,22.3,779.00,722.7
2022-01-02,14:55:00,DRY,2.10,10.60,26.0,779.00,714.2
2022-01-02,15:00:00,DRY,3.10,10.43,25.3,779.00,702.9
2022-01-02,15:05:00,DRY,2.15,10.20,26.0,779.00,691.9
2022-01-02,15:10:00,DRY,2.73,10.37,28.0,779.00,679.0
2022-01-02,15:15:00,DRY,3.65,10.05,29.0,779.00,668.0
2022-01-02,15:20:00,DRY,3.13,10.20,28.3,779.00,654.2
2022-01-02,15:25:00,DRY,3.45,10.25,30.5,779.00,641.6
2022-01-02,15:30:00,DRY,2.80,10.07,30.0,779.00,628.6
2022-01-02,15:35:00,DRY,2.45,9.85,30.5,779.00,614.5
2022-01-02,15:40:00,DRY,3.47,9.70,32.0,779.00,600.1
2022-01-02,15:45:00,DRY,3.40,9.65,33.0,779.00,585.5
2022-01-02,15:50:00,DRY,3.33,9.60,34.0,779.00,570.7
2022-01-02,15:55:00,DRY,2.05,9.80,34.0,779.00,554.5
2022-01-02,16:00:00,DRY,2.30,9.70,34.0,779.00,538.2
2022-01-02,16:05:00,DRY,1.95,9.60,32.5,779.00,522.9
2022-01-02,16:10:00,DRY,2.67,9.47,32.0,779.00,507.3
2022-01-02,16:15:00,DRY,2.50,9.30,34.0,779.00,489.8
2022-01-02,16:20:00,DRY,3.60,9.43,32.3,779.00,471.9
2022-01-02,16:25:00,DRY,2.45,9.45,32.0,779.00,454.7
2022-01-02,16:30:00,DRY,2.70,9.40,29.7,779.00,436.3
2022-01-02,16:35:00,DRY,3.95,9.35,30.5,779.00,418.1
2022-01-02,16:40:00,DRY,2.30,9.30,29.3,779.00,399.5
2022-01-02,16:45:00,DRY,3.20,9.40,30.5,779.50,380.2
2022-01-02,16:50:00,DRY,2.47,9.37,28.0,779.33,361.0
2022-01-02,16:55:00,DRY,2.55,9.35,30.0,779.00,340.6
2022-01-02,17:00:00,DRY,2.13,9.33,28.7,779.33,320.9
2022-01-02,17:05:00,DRY,1.50,9.25,30.5,779.00,300.6
2022-01-02,17:10:00,DRY,1.67,9.40,29.3,779.00,281.9
2022-01-02,17:15:00,DRY,1.70,9.60,27.0,779.00,260.6
2022-01-02,17:20:00,DRY,1.27,9.70,24.7,779.00,241.7
2022-01-02,17:25:00,DRY,1.85,9.60,24.5,779.50,221.8
2022-01-02,17:30:00,DRY,1.23,9.33,23.7,779.67,202.2
2022-01-02,17:35:00,DRY,2.00,9.40,22.0,779.50,183.9
2022-01-02,17:40:00,DRY,2.00,9.40,16.3,779.33,165.5
2022-01-02,17:45:00,DRY,2.30,9.60,15.5,779.50,141.6
2022-01-02,17:50:00,DRY,1.57,9.47,15.7,780.00,114.3